Home > Weather > Inverness > Past weeks

Flag for USA Past Weather in Inverness, Florida, USA — Yesterday and Last 2 Weeks

Now
75 °F

Mild.


Feels Like: 73 °F
Forecast: 75 / 87 °F
Wind: N/A

Location: The Villages

Current Time: Aug 30, 2016 at 1:21:48 AM

Latest Report: Aug 30, 2016 at 12:55 AM


Visibility: 10 mi

Pressure: 29.88 "Hg

Humidity: 100%

Dew Point: 75 °F

Location of InvernessLocation

Past Weather in Inverness — Graph

°F

Inverness Temperature Yesterday

Maximum temperature yesterday: 93 °F (at 1:15 PM)
Minimum temperature yesterday: 75 °F (at 5:55 PM)
Average temperature yesterday: 81 °F

High & Low Weather Summary for the Past Weeks

 TemperatureHumidityPressure
High95 °F (Aug 15, 3:15 PM)100% (Aug 15, 12:15 AM)30.10 "Hg (Aug 15, 12:15 AM)
Low75 °F (Aug 15, 12:15 AM)44% (Aug 27, 2:55 PM)29.82 "Hg (Aug 29, 2:55 PM)
Average83 °F83%29.96 "Hg
* Reported Aug 15 12:15 AM — Aug 30 12:15 AM, Inverness, Weather by CustomWeather, © 2016

Note: Actual official high and low records may vary slightly from our data, if they occured in-between our weather recording intervals... More about our weather records

Advertising

Inverness Weather History for the Previous 24 Hours

Scroll right to see more
 ConditionsComfort  
Time TempWeatherWind HumidityBarometerVisibility
12:15 AM
Tue, Aug 30
75 °FMild.No wind100%29.88 "Hg10 mi
11:55 PM
Mon, Aug 29
75 °FMild.N/A100%29.89 "Hg10 mi
11:35 PM77 °FWarm.N/A94%29.89 "Hg10 mi
11:15 PM77 °FWarm.N/A94%29.89 "Hg10 mi
10:55 PM77 °FWarm.N/A100%29.88 "Hg10 mi
10:35 PM77 °FWarm.6 mph100%29.88 "Hg10 mi
10:15 PM77 °FWarm.N/A100%29.87 "Hg10 mi
9:55 PM77 °FWarm.N/A100%29.86 "Hg10 mi
9:35 PM77 °FWarm.No wind100%29.86 "Hg10 mi
9:15 PM77 °FWarm.N/A100%29.86 "Hg10 mi
8:55 PM77 °FWarm.N/A100%29.86 "Hg10 mi
8:35 PM77 °FWarm.No wind100%29.85 "Hg10 mi
8:15 PM77 °FWarm.N/A100%29.86 "Hg10 mi
7:55 PM77 °FWarm.No wind100%29.86 "Hg10 mi
7:35 PM77 °FWarm.No wind100%29.85 "Hg10 mi
7:15 PM77 °FWarm.No wind100%29.86 "Hg10 mi
6:55 PM77 °FWarm.No wind100%29.86 "Hg10 mi
6:35 PM77 °FWarm.No wind100%29.85 "Hg10 mi
6:15 PM75 °FMild.No wind100%29.85 "Hg10 mi
5:55 PM75 °FMild.No wind100%29.85 "Hg10 mi
5:35 PM77 °FFog.N/A94%29.88 "Hg5 mi
5:15 PM79 °FWarm.7 mph94%29.86 "Hg10 mi
4:55 PM79 °FWarm.6 mph94%29.84 "Hg10 mi
4:35 PM79 °FWarm.N/A94%29.83 "Hg10 mi
4:15 PM84 °FWarm.N/A79%29.83 "Hg10 mi
3:55 PM86 °FWarm.N/A70%29.83 "Hg10 mi
3:15 PM88 °FWarm.N/A70%29.83 "Hg10 mi
2:55 PM90 °FHot.N/A63%29.82 "Hg10 mi
2:35 PM90 °FHot.N/A67%29.84 "Hg10 mi
2:15 PM93 °FExtremely hot.N/A59%29.84 "Hg10 mi
1:55 PM91 °FHot.N/A59%29.85 "Hg10 mi
1:35 PM93 °FExtremely hot.12 mph59%29.85 "Hg10 mi
1:15 PM93 °FExtremely hot.N/A59%29.85 "Hg10 mi
12:55 PM91 °FHot.13 mph63%29.86 "Hg10 mi
12:35 PM91 °FHot.N/A63%29.87 "Hg10 mi
12:15 PM90 °FHot.N/A67%29.87 "Hg10 mi
11:55 AM90 °FHot.N/A67%29.88 "Hg10 mi
11:35 AM88 °FWarm.N/A70%29.88 "Hg10 mi
11:15 AM88 °FWarm.8 mph75%29.89 "Hg10 mi
10:55 AM86 °FWarm.N/A75%29.89 "Hg10 mi
10:15 AM86 °FWarm.8 mph79%29.89 "Hg10 mi
9:55 AM86 °FWarm.N/A79%29.89 "Hg10 mi
9:15 AM84 °FWarm.N/A84%29.89 "Hg10 mi
8:55 AM82 °FWarm.N/A89%29.88 "Hg10 mi
8:35 AM81 °FWarm.N/A89%29.88 "Hg10 mi
8:15 AM79 °FWarm.N/A94%29.89 "Hg10 mi
7:55 AM79 °FWarm.No wind94%29.88 "Hg10 mi
7:35 AM77 °FWarm.N/A100%29.87 "Hg10 mi
7:15 AM77 °FWarm.N/A100%29.87 "Hg10 mi
6:55 AM77 °FWarm.N/A100%29.86 "Hg10 mi
6:15 AM77 °FWarm.N/A100%29.87 "Hg10 mi
5:55 AM77 °FWarm.5 mph100%29.86 "Hg10 mi
5:35 AM77 °FWarm.N/A100%29.87 "Hg10 mi
5:15 AM77 °FWarm.N/A100%29.87 "Hg10 mi
4:55 AM77 °FWarm.N/A100%29.86 "Hg10 mi
4:35 AM77 °FWarm.N/A100%29.86 "Hg10 mi
4:15 AM77 °FWarm.No wind100%29.86 "Hg10 mi
3:55 AM77 °FWarm.N/A100%29.86 "Hg10 mi
3:35 AM77 °FWarm.N/A100%29.87 "Hg10 mi
3:15 AM77 °FWarm.No wind100%29.87 "Hg10 mi
2:55 AM77 °FWarm.No wind100%29.87 "Hg10 mi
2:35 AM77 °FWarm.N/A100%29.87 "Hg10 mi
2:15 AM77 °FWarm.N/A100%29.87 "Hg10 mi
1:55 AM77 °FWarm.N/A100%29.88 "Hg10 mi
1:35 AM79 °FWarm.N/A94%29.87 "Hg10 mi
1:15 AM79 °FWarm.N/A94%29.88 "Hg10 mi
Weather by CustomWeather, © 2016

See weather overviewHow to use our weather pages